Weather in Mooresville

United States     35°35′04″N   80°48′35″W
temp.,
°C
wind,
m/s
gust,
m/s
humid.,
%
clouds,
%
prec.,
mm/h
press.,
hPa
HPBL,
m
7 may, fri
fri723:00+12ssw11684 0.1 101413
02:00+10ssw0193100 1.8 101310
05:00+10n2293100 1.6 101148
08:00+11nnw25869 1.6 1012159
11:00+16nw675247 0.1 10131797
14:00+18nw793657 0.3 10122596
17:00+18nw611323 0.0 10132863
20:00+13wnw37532 0.0 1014113
8 may, sat
sat823:00+10wnw38600 0.0 1016148
02:00+8w38700 0.0 1016151
05:00+10wsw4126796 0.0 1016332
08:00+12w410696 0.1 1018745
11:00+17wnw494415 0.0 10182327
14:00+21wnw59282 0.0 10172591
17:00+21nw47275 0.0 10162461
20:00+14nnw3552100 0.0 101886
9 may, sun
sun923:00+14n124598 0.0 102022
02:00+12ese225088 0.0 101941
05:00+11e2254100 0.0 102039
08:00+12se2460100 0.0 1020138
11:00+20ssw6105455 0.0 10181110
14:00+25sw81339100 0.0 10151935
17:00+26sw71442100 0.0 10132032
20:00+22sw61352100 0.0 1014768
10 may, mon
mon1023:00+21ssw61653100 0.0 1013747
02:00+19ssw61674100 0.0 1012684
05:00+17sw51694100 0.5 1012587
08:00+19sw51486100 0.5 1014655
11:00+22sw6970100 0.0 1013716
14:00+23sw51060100 0.0 10131119
17:00+24sw5759100 0.0 10121209
20:00+21sw477574 0.1 1013356
11 may, tue
tue1123:00+16nne499571 1.9 1015247
02:00+13nne51294100 4.3 1017503
05:00+12ne51187100 0.0 1017485
08:00+12nne51181100 0.1 1021644
11:00+13nne486771 0.0 1022781
14:00+20ne364291 0.0 10211890
17:00+22nne46336 0.0 10201991
20:00+15nne41051100 0.0 1023335